Weather History for Salida, CO

Change the Weather History Date:

Monday, February 3, 2014

  Actual Average (KGUC) Record (KGUC)
Temperature  
Mean Temperature 22 °F -  
Max Temperature 34 °F 23 °F 39 °F (1999)
Min Temperature 10 °F 0 °F -25 °F (2011)
Degree Days  
Heating Degree Days 43    
Moisture  
Dew Point 10 °F    
Average Humidity 59    
Maximum Humidity 77    
Minimum Humidity 43    
Precipitation  
Precipitation 0.00 in - - ()
Sea Level Pressure  
Sea Level Pressure 29.85 in    
Wind  
Wind Speed 8 mph (SW)    
Max Wind Speed 17 mph    
Max Gust Speed 29 mph    
Visibility 10 miles    
Events      
Averages and records for this station are not official NWS values.
T = Trace of Precipitation, MM = Missing Value Source: NWS Daily Summary

Daily Weather History Graph

Daily Weather History Graph

Search for Another Location

Airport:

Trip Planner

Search our weather history database for the weather conditions in past years. The results will help you decide how hot, cold, wet, or windy it might be!

Date:

Astronomy

Feb. 03, 2014 Rise Set
Actual Time 7:07 AM MST 5:28 PM MST
Civil Twilight 6:39 AM MST 5:56 PM MST
Nautical Twilight 6:08 AM MST 6:28 PM MST
Astronomical Twilight 5:37 AM MST 6:59 PM MST
Moon 9:15 AM MST (2/3) 10:17 PM MST (2/3)
Length of Visible Light 11h 16m
Length of Day
10h 20m
Waxing Crescent, 20% of the Moon is Illuminated
Feb 3
Waxing Crescent
Feb 6
First Quarter
Feb 14
Full
Feb 22
Last Quarter
Mar 1
New

Hourly Weather History & Observations

Time (MST) Temp. Windchill Dew Point Humidity Pressure Visibility Wind Dir Wind Speed Gust Speed Precip Events Conditions
12:15 AM 23.9 °F 14.2 °F 6.8 °F 48% 29.95 in 10.0 mi SSW 9.2 mph 20.7 mph N/A   Clear
12:35 AM 23.5 °F 13.0 °F 6.1 °F 47% 29.94 in 10.0 mi West 10.4 mph 16.1 mph N/A   Clear
1:15 AM 16.5 °F 5.1 °F 5.0 °F 61% 29.93 in 10.0 mi NNW 9.2 mph - N/A   Clear
1:35 AM 15.4 °F - 5.0 °F 63% 29.94 in 10.0 mi Calm Calm - N/A   Clear
1:55 AM 14.4 °F 2.4 °F 4.8 °F 66% 29.94 in 10.0 mi North 9.2 mph - N/A   Clear
2:15 AM 12.0 °F -1.3 °F 3.9 °F 70% 29.93 in 10.0 mi North 10.4 mph - N/A   Clear
2:35 AM 12.4 °F 3.1 °F 4.1 °F 69% 29.93 in 10.0 mi NNW 5.8 mph - N/A   Clear
2:55 AM 12.9 °F 3.8 °F 4.1 °F 68% 29.92 in 10.0 mi North 5.8 mph - N/A   Clear
3:15 AM 11.5 °F - 3.6 °F 71% 29.92 in 10.0 mi Calm Calm - N/A   Clear
3:35 AM 10.0 °F 3.6 °F 3.0 °F 73% 29.91 in 10.0 mi NNW 3.5 mph - N/A   Clear
3:55 AM 10.4 °F 2.2 °F 3.2 °F 73% 29.90 in 10.0 mi West 4.6 mph - N/A   Clear
4:15 AM 10.6 °F 4.3 °F 3.0 °F 72% 29.90 in 10.0 mi West 3.5 mph - N/A   Clear
4:35 AM 10.6 °F -1.3 °F 3.2 °F 72% 29.89 in 10.0 mi North 8.1 mph - N/A   Clear
4:55 AM 11.5 °F 2.1 °F 3.7 °F 71% 29.89 in 10.0 mi NNW 5.8 mph - N/A   Clear
5:15 AM 13.3 °F 4.2 °F 4.8 °F 69% 29.88 in 10.0 mi North 5.8 mph - N/A   Clear
5:35 AM 12.6 °F 4.8 °F 4.3 °F 69% 29.90 in 10.0 mi NNW 4.6 mph - N/A   Clear
5:55 AM 14.0 °F 5.1 °F 5.2 °F 68% 29.90 in 10.0 mi NW 5.8 mph - N/A   Clear
6:15 AM 13.5 °F 3.3 °F 4.8 °F 68% 29.90 in 10.0 mi NNW 6.9 mph - N/A   Clear
6:35 AM 12.9 °F 3.8 °F 4.3 °F 68% 29.90 in 10.0 mi West 5.8 mph - N/A   Clear
6:55 AM 13.5 °F 2.2 °F 4.1 °F 66% 29.90 in 10.0 mi NNW 8.1 mph - N/A   Clear
7:15 AM 11.8 °F 3.9 °F 3.7 °F 70% 29.91 in 10.0 mi NW 4.6 mph - N/A   Clear
7:35 AM 12.2 °F 0.7 °F 3.6 °F 68% 29.90 in 10.0 mi NNW 8.1 mph - N/A   Clear
7:55 AM 12.7 °F 2.4 °F 4.1 °F 68% 29.90 in 10.0 mi NNW 6.9 mph - N/A   Clear
8:15 AM 14.5 °F 1.9 °F 4.8 °F 65% 29.90 in 10.0 mi NNW 10.4 mph - N/A   Clear
8:35 AM 16.0 °F 7.4 °F 5.2 °F 62% 29.90 in 10.0 mi NNW 5.8 mph - N/A   Scattered Clouds
8:55 AM 17.2 °F 6.8 °F 5.4 °F 60% 29.90 in 10.0 mi NNW 8.1 mph - N/A   Scattered Clouds
9:15 AM 18.7 °F 9.5 °F 6.4 °F 59% 29.90 in 10.0 mi NNW 6.9 mph - N/A   Clear
9:35 AM 20.7 °F 11.9 °F 7.3 °F 56% 29.90 in 10.0 mi NNW 6.9 mph - N/A   Clear
9:55 AM 21.6 °F 16.8 °F 8.2 °F 57% 29.89 in 10.0 mi North 3.5 mph - N/A   Clear
10:15 AM 23.7 °F 19.3 °F 10.4 °F 57% 29.90 in 10.0 mi NNE 3.5 mph - N/A   Clear
10:35 AM 30.9 °F 23.5 °F 14.0 °F 50% 29.88 in 10.0 mi SSW 8.1 mph - N/A   Clear
10:55 AM 31.6 °F 20.4 °F 13.8 °F 48% 29.88 in 10.0 mi South 17.3 mph 26.5 mph N/A   Clear
11:15 AM 32.0 °F 21.2 °F 14.2 °F 48% 29.87 in 10.0 mi South 16.1 mph 25.3 mph N/A   Clear
11:35 AM 32.0 °F 22.5 °F 14.5 °F 49% 29.85 in 10.0 mi South 12.7 mph 18.4 mph N/A   Clear
11:55 AM 32.9 °F 22.0 °F 13.8 °F 45% 29.84 in 10.0 mi South 17.3 mph - N/A   Clear
12:15 PM 33.4 °F 24.8 °F 13.6 °F 44% 29.82 in 10.0 mi South 11.5 mph 20.7 mph N/A   Clear
12:35 PM 33.8 °F 25.8 °F 13.8 °F 44% 29.80 in 10.0 mi SSW 10.4 mph 23.0 mph N/A   Clear
12:55 PM 34.3 °F 24.6 °F 14.0 °F 43% 29.80 in 10.0 mi SSW 15.0 mph 20.7 mph N/A   Clear
1:15 PM 33.8 °F 25.3 °F 14.7 °F 46% 29.78 in 10.0 mi SSW 11.5 mph 19.6 mph N/A   Clear
1:35 PM 33.4 °F 23.9 °F 14.7 °F 46% 29.78 in 10.0 mi South 13.8 mph 26.5 mph N/A   Clear
1:55 PM 32.9 °F 22.4 °F 16.0 °F 50% 29.77 in 10.0 mi SSW 16.1 mph 27.6 mph N/A   Scattered Clouds
2:15 PM 33.1 °F 23.9 °F 15.6 °F 49% 29.77 in 10.0 mi SSW 12.7 mph 28.8 mph N/A   Clear
2:35 PM 33.4 °F 24.3 °F 15.6 °F 48% 29.77 in 10.0 mi SW 12.7 mph 24.2 mph N/A   Clear
2:55 PM 33.3 °F 23.7 °F 16.3 °F 50% 29.77 in 10.0 mi SSW 13.8 mph 20.7 mph N/A   Clear
3:15 PM 32.9 °F 22.4 °F 14.7 °F 47% 29.76 in 10.0 mi SSW 16.1 mph 19.6 mph N/A   Clear
3:35 PM 32.0 °F 22.1 °F 14.7 °F 49% 29.77 in 10.0 mi SW 13.8 mph - N/A   Clear
3:55 PM 32.0 °F 24.8 °F 14.5 °F 49% 29.77 in 10.0 mi SW 8.1 mph - N/A   Clear
4:15 PM 32.0 °F 23.0 °F 13.6 °F 47% 29.78 in 10.0 mi SW 11.5 mph 19.6 mph N/A   Clear
4:35 PM 31.6 °F 21.6 °F 12.6 °F 45% 29.78 in 10.0 mi South 13.8 mph 25.3 mph N/A   Scattered Clouds
4:55 PM 31.5 °F 21.4 °F 11.8 °F 44% 29.78 in 10.0 mi SSW 13.8 mph 20.7 mph N/A   Scattered Clouds
5:15 PM 30.4 °F 22.9 °F 12.9 °F 48% 29.79 in 10.0 mi SW 8.1 mph - N/A   Clear
5:35 PM 30.0 °F 22.4 °F 13.6 °F 51% 29.79 in 10.0 mi WSW 8.1 mph - N/A   Mostly Cloudy
5:55 PM 31.1 °F 26.4 °F 13.3 °F 48% 29.80 in 10.0 mi SW 4.6 mph - N/A   Overcast
6:15 PM 29.8 °F 26.3 °F 14.9 °F 54% 29.80 in 10.0 mi SW 3.5 mph - N/A   Overcast
6:35 PM 29.3 °F 23.2 °F 14.7 °F 55% 29.81 in 10.0 mi SE 5.8 mph - N/A   Overcast
6:55 PM 28.4 °F 22.2 °F 14.9 °F 57% 29.82 in 10.0 mi ESE 5.8 mph - N/A   Overcast
7:15 PM 28.0 °F 21.7 °F 14.0 °F 56% 29.82 in 10.0 mi SE 5.8 mph - N/A   Overcast
7:35 PM 27.3 °F 20.9 °F 13.5 °F 56% 29.83 in 10.0 mi ESE 5.8 mph - N/A   Overcast
7:55 PM 26.6 °F 17.5 °F 14.0 °F 59% 29.83 in 10.0 mi ESE 9.2 mph - N/A   Overcast
8:15 PM 26.1 °F 19.4 °F 14.0 °F 60% 29.83 in 10.0 mi ESE 5.8 mph - N/A   Overcast
8:35 PM 25.7 °F 17.1 °F 13.3 °F 59% 29.83 in 10.0 mi ESE 8.1 mph - N/A   Overcast
8:55 PM 24.8 °F 14.0 °F 14.9 °F 66% 29.84 in 10.0 mi SE 11.5 mph 18.4 mph N/A   Overcast
9:15 PM 23.9 °F 12.9 °F 14.4 °F 67% 29.84 in 10.0 mi SE 11.5 mph 16.1 mph N/A   Overcast
9:35 PM 23.4 °F 16.2 °F 14.0 °F 67% 29.84 in 10.0 mi SE 5.8 mph - N/A   Overcast
9:55 PM 23.4 °F 15.2 °F 12.0 °F 62% 29.84 in 10.0 mi SE 6.9 mph - N/A   Overcast
10:15 PM 23.5 °F 12.4 °F 11.5 °F 60% 29.83 in 10.0 mi SE 11.5 mph 16.1 mph N/A   Overcast
10:35 PM 23.4 °F 10.6 °F 12.7 °F 64% 29.83 in 10.0 mi SE 15.0 mph 18.4 mph N/A   Overcast
10:55 PM 23.0 °F 11.7 °F 13.8 °F 68% 29.84 in 10.0 mi SE 11.5 mph 17.3 mph N/A   Overcast
11:15 PM 22.5 °F 15.1 °F 14.5 °F 72% 29.83 in 10.0 mi ESE 5.8 mph 17.3 mph N/A   Overcast
11:35 PM 22.1 °F 12.0 °F 14.7 °F 73% 29.83 in 10.0 mi ESE 9.2 mph - N/A   Overcast
11:55 PM 21.6 °F 12.1 °F 15.4 °F 77% 29.83 in 10.0 mi ESE 8.1 mph - N/A   Overcast